Location: Peebles
(55.6412°N, 3.1714°W)
Time: 00:20:31
(UTC+01:00)

CENTAUR R/B - Pass Details

Date: 23 January 2022
Orbit: 716 x 1471 km, 63.4° (Epoch: 08 May)

Event Time Altitude Azimuth Distance (km) Brightness Sun altitude
Rises 21:18:25 0° 294° (WNW) 3,843 6.5 -39.7°
Reaches altitude 10° 21:20:59 10° 300° (WNW) 2,992 5.7 -40.0°
Enters shadow 21:26:03 43° 332° (NNW) 1,662 3.8 -40.7°
